[[{"header":{"parameterUnit":"m.s-1","parameterCategory":2,"la1":30.2992,"la2":30.254,"lo1":-89.0895,"lo2":-89.0443,"dy":0.0025,"dx":0.0025,"nx":19,"ny":19,"refTime":"2026-05-02T03:00:00:Z","depth":"0","parameterNumber":2,"parameterNumberName":"U-component_of_CURRENTS"},"data":[0,0,0,-0.283,-0.2833,-0.2928,-0.2929,-0.3005,-0.3006,0,0,0,0,0,0,0,0,0,0,0,-0.2781,-0.2781,-0.283,-0.2833,-0.2928,-0.2929,-0.3005,-0.3006,0,0,0,0,0,0,0,0,0,0,0,-0.278,-0.2781,-0.2781,-0.2833,-0.2928,-0.2929,-0.3005,-0.2942,0,0,0,0,0,0,0,0,0,0,-0.2854,-0.2806,-0.2781,-0.2782,-0.2834,-0.2928,-0.2929,-0.2939,-0.2946,-0.2952,0,-0.2964,0,-0.2999,-0.3011,-0.3011,0,0,0,-0.2823,-0.2801,-0.2843,-0.2782,-0.2835,-0.2928,-0.2883,-0.2943,-0.2951,-0.2961,-0.2966,-0.297,-0.3,-0.3011,-0.3012,-0.3122,-0.3123,0,0,-0.2818,-0.2783,-0.2838,-0.2848,-0.2856,-0.288,-0.2886,-0.2948,-0.2943,-0.2966,-0.2972,-0.3001,-0.3012,-0.3012,-0.3122,-0.3123,0,0,0,-0.2809,-0.2779,-0.282,-0.2843,-0.2871,-0.2883,-0.289,-0.294,-0.2958,-0.2973,-0.3002,-0.3012,-0.3013,-0.3121,-0.3122,-0.3163,0,0,0,-0.2806,-0.2776,-0.2818,-0.2796,-0.287,-0.2911,-0.2879,-0.2953,-0.2963,-0.3002,-0.3012,-0.3014,-0.312,-0.3122,-0.316,-0.3209,0,0,0,-0.2777,-0.2772,-0.2786,-0.2794,-0.2844,-0.2912,-0.2933,-0.2956,-0.298,-0.3011,-0.3014,-0.312,-0.3121,-0.3158,-0.3204,-0.3269,0,0,0,-0.2734,-0.2765,-0.2785,-0.2836,-0.2843,-0.2949,-0.2933,-0.299,-0.3019,-0.3013,-0.3121,-0.3122,-0.3157,-0.3201,-0.3266,-0.3273,-0.329,0,0,-0.2756,-0.2766,-0.2804,-0.2826,-0.2926,-0.2935,-0.3035,-0.3051,-0.3045,-0.3093,-0.3096,-0.3161,-0.3204,-0.3269,-0.3363,-0.3377,0,0,0,-0.2803,-0.2821,-0.2858,-0.2917,-0.2995,-0.3067,-0.3091,-0.3109,-0.3143,-0.3072,-0.3181,-0.3209,-0.3247,-0.3245,-0.3256,-0.3246,-0.3129,-0.3129,-0.3129,-0.2748,-0.2825,-0.2893,-0.2989,-0.306,-0.3154,-0.3213,-0.3241,-0.3206,-0.3226,-0.3255,-0.3355,-0.3352,-0.3361,-0.335,-0.3254,-0.3254,-0.3254,-0.3254,-0.277,-0.2803,-0.2914,-0.3002,-0.3107,-0.3186,-0.3315,-0.3315,-0.3397,-0.3333,-0.3368,-0.3305,-0.3376,-0.336,-0.3257,-0.3257,-0.3257,-0.3256,-0.3256,-0.2708,-0.2736,-0.2808,-0.2938,-0.3061,-0.3189,-0.3332,-0.3407,-0.3443,-0.3494,-0.3483,-0.3481,-0.3457,-0.3491,-0.3491,-0.3492,-0.3492,-0.3493,-0.3493,-0.259,-0.2677,-0.2719,-0.2874,-0.2948,-0.3099,-0.3334,-0.344,-0.3553,-0.3564,-0.3564,-0.3502,-0.3428,-0.3408,-0.3501,-0.3499,-0.3498,-0.3498,-0.3497,-0.2477,-0.2521,-0.2583,-0.2651,-0.285,-0.2976,-0.3246,-0.3509,-0.3638,-0.3693,-0.3646,-0.3609,-0.3607,-0.3597,-0.3581,-0.3714,-0.3714,-0.3714,-0.3714,-0.2359,-0.2403,-0.2444,-0.2532,-0.2697,-0.2908,-0.3129,-0.3422,-0.3652,-0.3697,-0.373,-0.3656,-0.3648,-0.3644,-0.3632,-0.3616,-0.3754,-0.3754,-0.3754,-0.2253,-0.2301,-0.2276,-0.2411,-0.2608,-0.2809,-0.2988,-0.3347,-0.3667,-0.3754,-0.3722,-0.372,-0.3604,-0.3592,-0.3574,-0.3559,-0.3526,0,0]},{"header":{"parameterUnit":"m.s-1","parameterCategory":2,"la1":30.2992,"la2":30.254,"lo1":-89.0895,"lo2":-89.0443,"dy":0.0025,"dx":0.0025,"nx":19,"ny":19,"refTime":"2026-05-02T03:00:00:Z","depth":"0","parameterNumber":3,"parameterNumberName":"V-component_of_CURRENTS"},"data":[0,0,0,-0.0326,-0.0324,-0.0202,-0.0201,-0.0,0.0002,0,0,0,0,0,0,0,0,0,0,0,-0.037,-0.037,-0.0326,-0.0324,-0.0202,-0.0201,-0.0,0.0002,0,0,0,0,0,0,0,0,0,0,0,-0.037,-0.037,-0.0369,-0.0324,-0.0202,-0.0201,-0.0001,-0.0099,0,0,0,0,0,0,0,0,0,0,-0.0221,-0.0283,-0.037,-0.0369,-0.0323,-0.0202,-0.0201,-0.0104,-0.0092,-0.005,0,-0.0048,0,-0.0027,0.0014,0.0015,0,0,0,-0.0301,-0.0292,-0.0256,-0.0369,-0.0323,-0.0202,-0.025,-0.0098,-0.0085,-0.0036,-0.0045,-0.0037,-0.0023,0.0015,0.0016,0.0115,0.0115,0,0,-0.0308,-0.0342,-0.0266,-0.0249,-0.031,-0.0255,-0.0247,-0.009,-0.0086,-0.0044,-0.0033,-0.002,0.0016,0.0018,0.0115,0.0115,0,0,0,-0.0343,-0.0347,-0.0315,-0.0257,-0.0243,-0.0252,-0.0243,-0.0093,-0.0082,-0.0031,-0.0018,0.0017,0.002,0.0116,0.0115,0.0004,0,0,0,-0.0346,-0.0369,-0.0319,-0.0337,-0.0247,-0.0175,-0.0249,-0.0093,-0.0075,-0.0019,0.0017,0.0021,0.0116,0.0116,0.0007,-0.0069,0,0,0,-0.0372,-0.0372,-0.0363,-0.034,-0.0296,-0.0177,-0.0156,-0.0088,-0.0067,0.0015,0.0022,0.0116,0.0116,0.0011,-0.0062,-0.0057,0,0,0,-0.0402,-0.0429,-0.0365,-0.039,-0.0298,-0.0257,-0.0157,-0.0108,-0.0049,0.0018,0.0116,0.0115,0.0012,-0.0057,-0.0053,-0.0041,-0.0056,0,0,-0.0459,-0.0437,-0.0453,-0.0394,-0.0404,-0.0271,-0.0252,-0.0132,-0.0041,0.0073,0.0076,0.0006,-0.0061,-0.0056,-0.0081,-0.0095,0,0,0,-0.0487,-0.0505,-0.0495,-0.0483,-0.0419,-0.0357,-0.0229,-0.0158,-0.0055,-0.0012,0.0024,-0.0015,-0.0008,0.0007,-0.0004,0.0385,0.0112,0.0112,0.0112,-0.061,-0.0581,-0.062,-0.0575,-0.0538,-0.0407,-0.0343,-0.022,-0.0116,-0.0089,-0.0093,-0.0152,-0.0138,-0.0146,0.0255,-0.0061,-0.0061,-0.0062,-0.0062,-0.0735,-0.077,-0.0725,-0.0751,-0.0663,-0.0618,-0.0449,-0.0358,-0.0243,-0.0168,-0.0154,-0.0097,-0.0164,0.0268,-0.0069,-0.0068,-0.0067,-0.0066,-0.0066,-0.0834,-0.0852,-0.0853,-0.0889,-0.0869,-0.0752,-0.073,-0.0557,-0.0375,-0.0357,-0.0268,-0.0265,0.0107,-0.0324,-0.0325,-0.0325,-0.0325,-0.0326,-0.0326,-0.0939,-0.0944,-0.1019,-0.1032,-0.1062,-0.1042,-0.0881,-0.0787,-0.0558,-0.0402,-0.04,0.0139,-0.0231,-0.023,-0.0331,-0.033,-0.0329,-0.0329,-0.0329,-0.1073,-0.1064,-0.1198,-0.1252,-0.1328,-0.1394,-0.1211,-0.0972,-0.0789,-0.0667,0.0063,-0.0388,-0.0342,-0.0332,-0.0331,-0.0452,-0.0452,-0.0452,-0.0452,-0.1161,-0.1168,-0.1368,-0.1505,-0.1602,-0.1571,-0.1551,-0.1168,-0.0388,0.0067,0.0235,0.0355,0.0342,0.0438,0.0431,0.0453,0.0533,0.0535,0.0537,-0.1255,-0.1309,-0.1484,-0.1618,-0.1743,-0.1776,-0.1765,-0.1266,0.0008,0.0622,0.078,0.0738,0.0961,0.091,0.1096,0.1055,0.1101,0,0]}],[{"header":{"parameterUnit":"m.s-1","parameterCategory":2,"la1":30.2992,"la2":30.254,"lo1":-89.0895,"lo2":-89.0443,"dy":0.0025,"dx":0.0025,"nx":19,"ny":19,"refTime":"2026-05-02T03:00:00:Z","depth":"2","parameterNumber":2,"parameterNumberName":"U-component_of_CURRENTS"},"data":[0,0,0,-0.2789,-0.2791,-0.2888,-0.2888,-0.2964,-0.2965,0,0,0,0,0,0,0,0,0,0,0,-0.2739,-0.274,-0.2789,-0.2791,-0.2888,-0.2888,-0.2964,-0.2965,0,0,0,0,0,0,0,0,0,0,0,-0.2739,-0.274,-0.274,-0.2792,-0.2888,-0.2888,-0.2964,-0.2901,0,0,0,0,0,0,0,0,0,0,-0.2812,-0.2765,-0.2739,-0.274,-0.2792,-0.2887,-0.2888,-0.2898,-0.2905,-0.291,0,-0.2923,0,-0.2957,-0.297,-0.297,0,0,0,-0.2782,-0.276,-0.2802,-0.274,-0.2793,-0.2887,-0.2842,-0.2902,-0.2909,-0.2919,-0.2924,-0.2928,-0.2958,-0.297,-0.2971,-0.308,-0.3081,0,0,-0.2777,-0.2742,-0.2797,-0.2806,-0.2815,-0.2839,-0.2845,-0.2907,-0.2902,-0.2925,-0.2931,-0.2959,-0.2971,-0.2971,-0.308,-0.308,0,0,0,-0.2768,-0.2738,-0.2779,-0.2802,-0.283,-0.2842,-0.2849,-0.2899,-0.2918,-0.2932,-0.296,-0.2971,-0.2972,-0.3079,-0.308,-0.312,0,0,0,-0.2764,-0.2735,-0.2776,-0.2755,-0.2829,-0.2871,-0.2839,-0.2913,-0.2922,-0.296,-0.2971,-0.2973,-0.3078,-0.3079,-0.3118,-0.3166,0,0,0,-0.2735,-0.2732,-0.2745,-0.2753,-0.2804,-0.2871,-0.2892,-0.2915,-0.2939,-0.297,-0.2973,-0.3078,-0.3079,-0.3115,-0.3161,-0.3225,0,0,0,-0.2694,-0.2724,-0.2744,-0.2795,-0.2803,-0.2907,-0.2892,-0.2949,-0.2978,-0.2972,-0.3078,-0.308,-0.3115,-0.3158,-0.3222,-0.3203,-0.3218,0,0,-0.2715,-0.2724,-0.2762,-0.2785,-0.2883,-0.2893,-0.2992,-0.3009,-0.3003,-0.3051,-0.3054,-0.3119,-0.3161,-0.3225,-0.3292,-0.3304,0,0,0,-0.2761,-0.2779,-0.2815,-0.2874,-0.2951,-0.3023,-0.3048,-0.3066,-0.3101,-0.3031,-0.3139,-0.3165,-0.3204,-0.3185,-0.3196,-0.3087,-0.3087,-0.3087,-0.3087,-0.2708,-0.2783,-0.285,-0.2944,-0.3015,-0.3109,-0.3167,-0.3196,-0.3163,-0.3183,-0.3212,-0.3311,-0.3291,-0.3299,-0.3211,-0.3211,-0.3211,-0.3212,-0.3212,-0.2729,-0.2762,-0.2871,-0.2957,-0.3061,-0.314,-0.3268,-0.3269,-0.3351,-0.3289,-0.3323,-0.3246,-0.3312,-0.3215,-0.3215,-0.3214,-0.3214,-0.3213,-0.3213,-0.2668,-0.2696,-0.2767,-0.2895,-0.3017,-0.3143,-0.3284,-0.336,-0.3396,-0.3447,-0.342,-0.3418,-0.3347,-0.3445,-0.3446,-0.3446,-0.3447,-0.3447,-0.3447,-0.2553,-0.2638,-0.268,-0.2832,-0.2905,-0.3054,-0.3286,-0.3391,-0.3493,-0.3498,-0.3497,-0.3391,-0.3383,-0.3363,-0.3455,-0.3454,-0.3453,-0.3452,-0.3451,-0.2441,-0.2485,-0.2546,-0.2613,-0.2808,-0.2906,-0.319,-0.3438,-0.3568,-0.3615,-0.3535,-0.353,-0.3526,-0.3516,-0.35,-0.3623,-0.3623,-0.3623,-0.3623,-0.2325,-0.2369,-0.2408,-0.2493,-0.2653,-0.2828,-0.2963,-0.3106,-0.3323,-0.3311,-0.3323,-0.3218,-0.3221,-0.3192,-0.319,-0.3163,-0.3198,-0.3196,-0.3195,-0.2221,-0.2268,-0.2243,-0.2373,-0.2564,-0.2703,-0.2707,-0.2641,-0.2812,-0.3164,-0.3103,-0.3623,-0.35,-0.3491,-0.3469,-0.3457,-0.3424,0,0]},{"header":{"parameterUnit":"m.s-1","parameterCategory":2,"la1":30.2992,"la2":30.254,"lo1":-89.0895,"lo2":-89.0443,"dy":0.0025,"dx":0.0025,"nx":19,"ny":19,"refTime":"2026-05-02T03:00:00:Z","depth":"2","parameterNumber":3,"parameterNumberName":"V-component_of_CURRENTS"},"data":[0,0,0,-0.0265,-0.0264,-0.0143,-0.0142,0.0058,0.0059,0,0,0,0,0,0,0,0,0,0,0,-0.0308,-0.0308,-0.0266,-0.0263,-0.0143,-0.0142,0.0057,0.0059,0,0,0,0,0,0,0,0,0,0,0,-0.0308,-0.0308,-0.0308,-0.0263,-0.0143,-0.0142,0.0057,-0.004,0,0,0,0,0,0,0,0,0,0,-0.016,-0.0222,-0.0308,-0.0308,-0.0263,-0.0144,-0.0142,-0.0045,-0.0034,0.0009,0,0.0011,0,0.0032,0.0072,0.0072,0,0,0,-0.024,-0.0231,-0.0196,-0.0308,-0.0262,-0.0144,-0.0191,-0.0039,-0.0026,0.0024,0.0014,0.0021,0.0035,0.0073,0.0074,0.0174,0.0173,0,0,-0.0247,-0.0281,-0.0205,-0.0189,-0.025,-0.0195,-0.0188,-0.0031,-0.0028,0.0015,0.0026,0.0038,0.0074,0.0075,0.0174,0.0173,0,0,0,-0.0281,-0.0286,-0.0255,-0.0197,-0.0183,-0.0192,-0.0183,-0.0034,-0.0024,0.0028,0.0041,0.0075,0.0077,0.0174,0.0174,0.0061,0,0,0,-0.0284,-0.0308,-0.0258,-0.0276,-0.0187,-0.0116,-0.019,-0.0035,-0.0016,0.004,0.0075,0.0079,0.0174,0.0174,0.0065,-0.001,0,0,0,-0.031,-0.031,-0.0302,-0.0279,-0.0237,-0.0118,-0.0097,-0.003,-0.0009,0.0072,0.008,0.0175,0.0174,0.0068,-0.0003,0.0001,0,0,0,-0.0339,-0.0367,-0.0303,-0.0329,-0.0238,-0.0197,-0.0098,-0.005,0.0009,0.0076,0.0174,0.0174,0.0069,0.0001,0.0005,0.0016,0.0001,0,0,-0.0396,-0.0374,-0.0391,-0.0332,-0.0342,-0.0211,-0.0192,-0.0073,0.0018,0.0132,0.0134,0.0064,-0.0003,0.0002,-0.0023,-0.0037,0,0,0,-0.0424,-0.0442,-0.0431,-0.042,-0.0356,-0.0296,-0.0169,-0.0099,0.0003,0.0046,0.0082,0.0043,0.005,0.0065,0.0054,0.0171,0.0171,0.0171,0.0171,-0.0546,-0.0517,-0.0556,-0.0511,-0.0474,-0.0345,-0.0282,-0.0159,-0.0056,-0.0031,-0.0034,-0.0094,-0.008,-0.0088,-0.0002,-0.0003,-0.0003,-0.0004,-0.0004,-0.067,-0.0705,-0.066,-0.0685,-0.0598,-0.0554,-0.0387,-0.0297,-0.0184,-0.011,-0.0095,-0.0039,-0.0107,-0.0012,-0.0011,-0.001,-0.0009,-0.0008,-0.0008,-0.0768,-0.0785,-0.0787,-0.0823,-0.0803,-0.0688,-0.0667,-0.0496,-0.0315,-0.0299,-0.021,-0.0207,-0.0159,-0.0267,-0.0267,-0.0267,-0.0268,-0.0268,-0.0268,-0.0873,-0.0878,-0.0953,-0.0966,-0.0995,-0.0976,-0.0817,-0.0724,-0.0498,-0.0344,-0.0342,-0.0182,-0.0173,-0.0172,-0.0273,-0.0272,-0.0272,-0.0271,-0.0271,-0.1007,-0.0998,-0.1131,-0.1185,-0.1259,-0.1309,-0.1142,-0.0906,-0.0728,-0.0607,-0.0334,-0.0331,-0.0285,-0.0274,-0.0274,-0.0395,-0.0395,-0.0395,-0.0395,-0.1094,-0.1101,-0.13,-0.1436,-0.153,-0.1479,-0.1434,-0.1063,-0.0646,-0.0399,-0.0399,-0.0348,-0.0342,-0.0295,-0.0284,-0.0281,-0.0405,-0.0405,-0.0405,-0.1188,-0.1242,-0.1415,-0.1547,-0.1669,-0.1666,-0.1597,-0.1122,-0.0504,-0.0405,-0.0397,-0.0397,-0.0317,-0.031,-0.0228,-0.0214,-0.0206,0,0]}],[{"header":{"parameterUnit":"m.s-1","parameterCategory":2,"la1":30.2992,"la2":30.254,"lo1":-89.0895,"lo2":-89.0443,"dy":0.0025,"dx":0.0025,"nx":19,"ny":19,"refTime":"2026-05-02T03:00:00:Z","depth":"4","parameterNumber":2,"parameterNumberName":"U-component_of_CURRENTS"},"data":[0,0,0,-0.191,-0.1914,-0.2106,-0.2107,-0.226,-0.2261,0,0,0,0,0,0,0,0,0,0,0,-0.1846,-0.1847,-0.191,-0.1915,-0.2106,-0.2107,-0.226,-0.2261,0,0,0,0,0,0,0,0,0,0,0,-0.1845,-0.1847,-0.1848,-0.1915,-0.2106,-0.2107,-0.2259,-0.2138,0,0,0,0,0,0,0,0,0,0,-0.1964,-0.1916,-0.1846,-0.1848,-0.1916,-0.2106,-0.2107,-0.2134,-0.2146,-0.2146,0,-0.2183,0,-0.2223,-0.2269,-0.2269,0,0,0,-0.1917,-0.1906,-0.1958,-0.1849,-0.1918,-0.2105,-0.202,-0.2141,-0.2155,-0.2161,-0.2186,-0.2192,-0.2225,-0.2269,-0.227,-0.2422,-0.2423,0,0,-0.1907,-0.1878,-0.1949,-0.1967,-0.1977,-0.2014,-0.2026,-0.2151,-0.2166,-0.2186,-0.2196,-0.2228,-0.227,-0.2271,-0.2422,-0.2423,0,0,0,-0.1875,-0.1871,-0.1922,-0.196,-0.2001,-0.202,-0.2034,-0.216,-0.2178,-0.2198,-0.2229,-0.2271,-0.2272,-0.2421,-0.2422,-0.2472,0,0,0,-0.1868,-0.1852,-0.1917,-0.1902,-0.1999,-0.2096,-0.204,-0.217,-0.2186,-0.2229,-0.2271,-0.2273,-0.242,-0.2421,-0.2469,-0.2505,0,0,0,-0.1835,-0.1849,-0.1874,-0.19,-0.1982,-0.2095,-0.2121,-0.2175,-0.2204,-0.2269,-0.2274,-0.2419,-0.2421,-0.2466,-0.25,-0.2558,0,0,0,-0.1795,-0.1836,-0.1873,-0.1941,-0.198,-0.2112,-0.2121,-0.2223,-0.2284,-0.2272,-0.242,-0.2422,-0.2465,-0.2496,-0.2555,-0.2246,0,0,0,-0.1818,-0.1839,-0.188,-0.1918,-0.2033,-0.2085,-0.2215,-0.2293,-0.2309,-0.2371,-0.2376,-0.247,-0.2499,-0.2558,-0.2359,0,0,0,0,-0.187,-0.1898,-0.1942,-0.2023,-0.2119,-0.2227,-0.2307,-0.2347,-0.2433,-0.2354,-0.2494,-0.2512,-0.2546,-0.2357,-0.2431,-0.2431,-0.243,-0.243,-0.243,-0.1835,-0.1909,-0.199,-0.2096,-0.219,-0.2333,-0.2421,-0.2491,-0.2487,-0.2536,-0.257,-0.2674,-0.2476,-0.2581,-0.2582,-0.2582,-0.2582,-0.2582,-0.2582,-0.1853,-0.189,-0.2021,-0.2126,-0.226,-0.2379,-0.2536,-0.2571,-0.2689,-0.2649,-0.2679,-0.2443,-0.2588,-0.2587,-0.2586,-0.2585,-0.2585,-0.2585,-0.2584,-0.1793,-0.1821,-0.1924,-0.2084,-0.2249,-0.2409,-0.2549,-0.2669,-0.2738,-0.2795,-0.2595,-0.2726,-0.2703,-0.2808,-0.2808,-0.2809,-0.2809,-0.2809,-0.281,-0.1667,-0.1774,-0.1852,-0.2038,-0.2143,-0.2312,-0.2565,-0.2646,-0.2762,-0.2642,-0.2818,-0.275,-0.2743,-0.2717,-0.2817,-0.2815,-0.2814,-0.2814,-0.2813,-0.1556,-0.1624,-0.1712,-0.1814,-0.2039,-0.2149,-0.2428,-0.2531,-0.2602,-0.2566,-0.2557,-0.2568,-0.2528,-0.2527,-0.2491,-0.2527,-0.2524,-0.252,0,-0.1452,-0.15,-0.1589,-0.1692,-0.1814,-0.2035,-0.2088,-0.2236,-0.2349,-0.2262,-0.2584,-0.2569,-0.2576,-0.2525,-0.2518,-0.2472,0,0,0,-0.1371,-0.1414,-0.1426,-0.156,-0.1692,-0.1855,-0.2086,-0.2066,-0.2326,-0.232,-0.243,-0.2454,-0.2682,-0.2837,-0.2802,-0.2793,-0.275,0,0]},{"header":{"parameterUnit":"m.s-1","parameterCategory":2,"la1":30.2992,"la2":30.254,"lo1":-89.0895,"lo2":-89.0443,"dy":0.0025,"dx":0.0025,"nx":19,"ny":19,"refTime":"2026-05-02T03:00:00:Z","depth":"4","parameterNumber":3,"parameterNumberName":"V-component_of_CURRENTS"},"data":[0,0,0,-0.001,-0.0009,0.0065,0.0065,0.0213,0.0215,0,0,0,0,0,0,0,0,0,0,0,-0.0035,-0.0035,-0.001,-0.0009,0.0065,0.0065,0.0213,0.0215,0,0,0,0,0,0,0,0,0,0,0,-0.0035,-0.0035,-0.0035,-0.0009,0.0064,0.0065,0.0213,0.0149,0,0,0,0,0,0,0,0,0,0,0.0072,0.0031,-0.0035,-0.0035,-0.0008,0.0064,0.0065,0.0145,0.0153,0.0189,0,0.0187,0,0.0197,0.0224,0.0224,0,0,0,0.001,0.0024,0.0044,-0.0035,-0.0008,0.0064,0.0037,0.0149,0.0158,0.02,0.0189,0.0194,0.02,0.0225,0.0226,0.0298,0.0298,0,0,0.0006,-0.0014,0.0038,0.0049,-0.0005,0.0034,0.0039,0.0154,0.0157,0.019,0.0198,0.0202,0.0226,0.0227,0.0299,0.0298,0,0,0,-0.0018,-0.0018,-0.0001,0.0043,0.0048,0.0036,0.0041,0.0152,0.0157,0.0199,0.0204,0.0227,0.0228,0.0299,0.0299,0.0192,0,0,0,-0.002,-0.0033,-0.0004,-0.0014,0.0045,0.0092,0.0037,0.0149,0.0162,0.0203,0.0227,0.023,0.0299,0.0299,0.0196,0.0132,0,0,0,-0.0035,-0.0035,-0.0032,-0.0016,0.0007,0.009,0.0103,0.0152,0.0165,0.0225,0.023,0.0299,0.0299,0.0199,0.0138,0.0132,0,0,0,-0.005,-0.0073,-0.0032,-0.0058,0.0006,0.0022,0.0102,0.013,0.0171,0.0227,0.0299,0.0299,0.02,0.0142,0.0136,0.0068,0,0,0,-0.0092,-0.0078,-0.0095,-0.0058,-0.0081,0.0014,0.0013,0.0102,0.0179,0.027,0.0271,0.0195,0.0139,0.0133,0.0034,0,0,0,0,-0.0118,-0.0134,-0.0132,-0.0136,-0.0101,-0.0069,0.0023,0.0076,0.0153,0.0198,0.0212,0.0181,0.0181,0.0152,0.0296,0.0296,0.0296,0.0296,0.0296,-0.0194,-0.0188,-0.0228,-0.0214,-0.0199,-0.0119,-0.0082,0.0012,0.0097,0.0115,0.0108,0.0045,0.0011,0.0135,0.0134,0.0134,0.0133,0.0133,0.0133,-0.0285,-0.0315,-0.0311,-0.0348,-0.0306,-0.0289,-0.0179,-0.0111,-0.0033,0.0037,0.0044,0.0057,0.0123,0.0125,0.0126,0.0127,0.0128,0.0129,0.0129,-0.0341,-0.0359,-0.0384,-0.0447,-0.0464,-0.0403,-0.041,-0.0289,-0.0147,-0.0143,-0.0119,-0.0014,-0.0018,-0.012,-0.012,-0.012,-0.0121,-0.0121,-0.0121,-0.0387,-0.0415,-0.0496,-0.0548,-0.0599,-0.0621,-0.0535,-0.0473,-0.0316,-0.0255,-0.0165,-0.0039,-0.003,-0.0031,-0.0126,-0.0125,-0.0125,-0.0124,-0.0124,-0.0454,-0.0466,-0.0598,-0.067,-0.0793,-0.0801,-0.0737,-0.0588,-0.0521,-0.0418,-0.0287,-0.0278,-0.0239,-0.0225,-0.023,-0.0389,-0.039,-0.0391,0,-0.0491,-0.051,-0.0695,-0.0839,-0.0945,-0.0916,-0.087,-0.0759,-0.0547,-0.0556,-0.0487,-0.0347,-0.0337,-0.0297,-0.0287,-0.0298,0,0,0,-0.0539,-0.0594,-0.0736,-0.0888,-0.1015,-0.0932,-0.0856,-0.0803,-0.0598,-0.052,-0.0423,-0.0415,-0.0275,-0.0141,-0.0057,-0.0047,-0.0042,0,0]}]]